Location: Molveno
(46.1500°N, 10.9667°E)
Time: 07:44:55
(UTC+00:00)

Meteor 2-6 Rocket - Pass Details

Date: 05 July 2020
Orbit: 804 x 916 km, 81.3° (Epoch: 05 August)

Event Time Altitude Azimuth Distance (km) Brightness Sun altitude
Rises 23:27:43 0° 351° (N) 3,388 8.8 -21.2°
Reaches altitude 10° 23:30:11 10° 355° (N) 2,436 7.8 -21.2°
Maximum altitude 23:35:37 61° 76° (ENE) 924 4.4 -21.1°
Enters shadow 23:37:49 35° 142° (SE) 1,293 4.8 -21.1°
